Weather History for West Cameron, TX

Change the Weather History Date:

Saturday, May 3, 2014

  Actual Average Record
Temperature  
Mean Temperature 71 °F -  
Max Temperature 73 °F - - ()
Min Temperature 69 °F - - ()
Cooling Degree Days 6    
Growing Degree Days 21 (Base 50)    
Moisture  
Dew Point 60 °F    
Average Humidity 65    
Maximum Humidity 78    
Minimum Humidity 50    
Precipitation  
Precipitation 0.00 in - - ()
Sea Level Pressure  
Sea Level Pressure 30.10 in    
Wind  
Wind Speed 7 mph (SW)    
Max Wind Speed 12 mph    
Max Gust Speed 17 mph    
Visibility 10 miles    
Events      
T = Trace of Precipitation, MM = Missing Value Source: NWS Daily Summary

Daily Weather History Graph

Daily Weather History Graph

Search for Another Location

Airport:

Trip Planner

Search our weather history database for the weather conditions in past years. The results will help you decide how hot, cold, wet, or windy it might be!

Date:

Astronomy

May. 03, 2014 Rise Set
Actual Time 6:30 AM CDT 7:50 PM CDT
Civil Twilight 6:05 AM CDT 8:15 PM CDT
Nautical Twilight 5:35 AM CDT 8:45 PM CDT
Astronomical Twilight 5:04 AM CDT 9:16 PM CDT
Moon 10:04 AM CDT (5/3) 11:54 PM CDT (5/3)
Length of Visible Light 14h 10m
Length of Day
13h 19m
Waxing Crescent, 20% of the Moon is Illuminated
May 3
Waxing Crescent
May 6
First Quarter
May 14
Full
May 21
Last Quarter
May 28
New

Hourly Weather History & Observations

Time (CDT) Temp. Dew Point Humidity Pressure Visibility Wind Dir Wind Speed Gust Speed Precip Events Conditions
3:35 AM 69.8 °F 51.8 °F 53% 30.04 in 10.0 mi Variable 4.6 mph - N/A   Clear
3:55 AM 69.8 °F 53.6 °F 56% 30.05 in 10.0 mi Variable 3.5 mph - N/A   Clear
4:15 AM 71.6 °F 51.8 °F 50% 30.05 in 10.0 mi SW 5.8 mph - N/A   Clear
4:35 AM 71.6 °F 53.6 °F 53% 30.05 in 10.0 mi SW 5.8 mph - N/A   Clear
4:55 AM 71.6 °F 51.8 °F 50% 30.05 in 10.0 mi SW 6.9 mph - N/A   Clear
5:15 AM 71.6 °F 53.6 °F 53% 30.05 in 10.0 mi SW 8.1 mph - N/A   Clear
5:35 AM 71.6 °F 53.6 °F 53% 30.06 in 10.0 mi SW 8.1 mph 13.8 mph N/A   Clear
5:55 AM 73.4 °F 57.2 °F 57% 30.06 in 10.0 mi WSW 10.4 mph - N/A   Clear
6:15 AM 71.6 °F 57.2 °F 60% 30.07 in 10.0 mi WSW 10.4 mph - N/A   Clear
6:35 AM 71.6 °F 59.0 °F 64% 30.08 in 10.0 mi WSW 10.4 mph - N/A   Clear
6:55 AM 71.6 °F 59.0 °F 64% 30.09 in 10.0 mi WSW 8.1 mph - N/A   Clear
7:15 AM 71.6 °F 59.0 °F 64% 30.09 in 10.0 mi WSW 8.1 mph - N/A   Clear
7:35 AM 73.4 °F 59.0 °F 61% 30.10 in 10.0 mi SW 8.1 mph 13.8 mph N/A   Clear
7:55 AM 73.4 °F 60.8 °F 65% 30.10 in 10.0 mi SW 6.9 mph 13.8 mph N/A   Clear
8:15 AM 73.4 °F 60.8 °F 65% 30.10 in 10.0 mi WSW 10.4 mph - N/A   Clear
8:35 AM 73.4 °F 59.0 °F 61% 30.11 in 10.0 mi WSW 10.4 mph - N/A   Clear
8:55 AM 73.4 °F 59.0 °F 61% 30.11 in 10.0 mi SW 6.9 mph - N/A   Clear
9:15 AM 73.4 °F 59.0 °F 61% 30.12 in 10.0 mi SW 6.9 mph 12.7 mph N/A   Clear
9:35 AM 73.4 °F 60.8 °F 65% 30.12 in 10.0 mi SW 5.8 mph - N/A   Clear
9:55 AM 71.6 °F 60.8 °F 69% 30.12 in 10.0 mi SW 4.6 mph - N/A   Clear
10:15 AM 71.6 °F 60.8 °F 69% 30.13 in 10.0 mi SW 5.8 mph - N/A   Clear
10:35 AM 73.4 °F 60.8 °F 65% 30.13 in 10.0 mi SW 6.9 mph 13.8 mph N/A   Clear
10:55 AM 71.6 °F 59.0 °F 64% 30.13 in 10.0 mi SW 8.1 mph 15.0 mph N/A   Clear
11:15 AM 73.4 °F 60.8 °F 65% 30.14 in 10.0 mi SW 8.1 mph - N/A   Clear
11:35 AM 73.4 °F 59.0 °F 61% 30.14 in 10.0 mi SW 8.1 mph 15.0 mph N/A   Clear
11:55 AM 73.4 °F 59.0 °F 61% 30.14 in 10.0 mi SW 8.1 mph 17.3 mph N/A   Clear
12:15 PM 73.4 °F 59.0 °F 61% 30.13 in 10.0 mi SW 11.5 mph - N/A   Clear
12:35 PM 73.4 °F 59.0 °F 61% 30.13 in 10.0 mi SW 9.2 mph 15.0 mph N/A   Clear
12:55 PM 73.4 °F 59.0 °F 61% 30.13 in 10.0 mi SW 9.2 mph - N/A   Clear
1:15 PM 73.4 °F 59.0 °F 61% 30.13 in 10.0 mi SW 8.1 mph 15.0 mph N/A   Clear
1:35 PM 73.4 °F 59.0 °F 61% 30.13 in 10.0 mi SW 10.4 mph - N/A   Clear
1:55 PM 73.4 °F 60.8 °F 65% 30.13 in 10.0 mi WSW 11.5 mph - N/A   Clear
2:15 PM 73.4 °F 62.6 °F 69% 30.13 in 10.0 mi SW 9.2 mph 16.1 mph N/A   Clear
2:35 PM 73.4 °F 62.6 °F 69% 30.12 in 10.0 mi SW 8.1 mph 15.0 mph N/A   Clear
2:55 PM 73.4 °F 62.6 °F 69% 30.12 in 10.0 mi WSW 11.5 mph - N/A   Clear
3:15 PM 73.4 °F 60.8 °F 65% 30.11 in 10.0 mi WSW 11.5 mph - N/A   Clear
3:35 PM 73.4 °F 60.8 °F 65% 30.11 in 10.0 mi SW 11.5 mph - N/A   Clear
3:55 PM 73.4 °F 60.8 °F 65% 30.10 in 10.0 mi SW 9.2 mph - N/A   Clear
4:15 PM 73.4 °F 60.8 °F 65% 30.10 in 10.0 mi SW 11.5 mph - N/A   Clear
4:35 PM 73.4 °F 60.8 °F 65% 30.10 in 10.0 mi SW 8.1 mph 15.0 mph N/A   Clear
4:55 PM 73.4 °F 60.8 °F 65% 30.09 in 10.0 mi SW 6.9 mph 15.0 mph N/A   Clear
5:15 PM 73.4 °F 62.6 °F 69% 30.09 in 10.0 mi SW 6.9 mph 12.7 mph N/A   Clear
5:35 PM 73.4 °F 60.8 °F 65% 30.09 in 10.0 mi SW 9.2 mph 15.0 mph N/A   Clear
5:55 PM 73.4 °F 62.6 °F 69% 30.09 in 10.0 mi SW 6.9 mph 16.1 mph N/A   Clear
6:15 PM 71.6 °F 60.8 °F 69% 30.09 in 10.0 mi Variable 4.6 mph 11.5 mph N/A   Clear
6:35 PM 71.6 °F 60.8 °F 69% 30.09 in 10.0 mi Variable 5.8 mph - N/A   Clear
6:55 PM 71.6 °F 60.8 °F 69% 30.09 in 10.0 mi SW 6.9 mph - N/A   Clear
7:15 PM 71.6 °F 60.8 °F 69% 30.09 in 10.0 mi Variable 6.9 mph - N/A   Clear
7:35 PM 71.6 °F 60.8 °F 69% 30.09 in 10.0 mi Variable 5.8 mph - N/A   Clear
7:55 PM 71.6 °F 60.8 °F 69% 30.10 in 10.0 mi Variable 4.6 mph - N/A   Clear
8:15 PM 71.6 °F 62.6 °F 73% 30.10 in 9.0 mi Variable 4.6 mph - N/A   Clear
8:35 PM 71.6 °F 62.6 °F 73% 30.10 in 9.0 mi Calm Calm - N/A   Clear
8:55 PM 71.6 °F 62.6 °F 73% 30.10 in 9.0 mi Variable 3.5 mph - N/A   Clear
9:15 PM 71.6 °F 62.6 °F 73% 30.11 in 9.0 mi SSW 4.6 mph - N/A   Clear
9:35 PM 71.6 °F 62.6 °F 73% 30.11 in 9.0 mi Variable 3.5 mph - N/A   Clear
9:55 PM 71.6 °F 62.6 °F 73% 30.11 in 10.0 mi SSW 9.2 mph - N/A   Clear
10:15 PM 71.6 °F 62.6 °F 73% 30.12 in 10.0 mi SSW 8.1 mph 16.1 mph N/A   Clear
10:35 PM 71.6 °F 62.6 °F 73% 30.12 in 10.0 mi SSW 9.2 mph - N/A   Clear
10:55 PM 71.6 °F 62.6 °F 73% 30.13 in 10.0 mi SSW 6.9 mph 16.1 mph N/A   Clear
11:15 PM 71.6 °F 62.6 °F 73% 30.13 in 9.0 mi SSW 8.1 mph - N/A   Partly Cloudy
11:35 PM 71.6 °F 64.4 °F 78% 30.13 in 10.0 mi SSW 9.2 mph 17.3 mph N/A   Clear
11:55 PM 71.6 °F 62.6 °F 73% 30.13 in 10.0 mi SSW 8.1 mph 15.0 mph N/A   Clear